Regional Weather Roundup
Issued by NWS

Home | Current Version | Previous Version | Text Only | Print | Product List | Glossary On
Versions: 1 2 3 4 5 6 7 8 9 10 11 12 13 14 15 16 17 18 19 20 21 22 23 24 25 26 27 28 29 30 31 32 33 34 35 36 37 38 39 40 41 42 43 44 45 46 47 48 49 50
222
ASUS42 KTBW 190618
RWRFL
FLORIDA REGIONAL WEATHER ROUNDUP
NATIONAL WEATHER SERVICE TAMPA BAY RUSKIN FL
100 AM EST MON FEB 19 2018

NOTE: "FAIR" INDICATES FEW OR NO CLOUDS BELOW 12,000 FEET WITH NO
SIGNIFICANT WEATHER AND/OR OBSTRUCTIONS TO VISIBILITY.

FLZ001>010-012>015-112-114-115-190700-
PANHANDLE FLORIDA

CITY           SKY/WX    TMP DP  RH WIND       PRES   REMARKS
PENSACOLA      MOCLDY    70  68  93 S7        30.19S
PENSACOLA NAS  FAIR      69  67  93 MISG      30.18S
MILTON NAS     FOG       66  66 100 SE8       30.19  VSB 1/4
CRESTVIEW      MOCLDY    58  56  93 CALM      30.22R FOG
DUKE FIELD     FOG       66  66 100 S6        30.20S VSB 1
VALPARAISO     PTCLDY    68  68  98 S6        30.19F
MARY ESTHER    FAIR      69  68  98 SE7       30.19
PANAMA CITY    CLOUDY    67  66  97 SE5       30.21S
TYNDALL AFB    FAIR      66  66 100 SE3       30.22F
APALACHICOLA   FOG       62  62 100 CALM      30.21F VSB 1/2

STATION/POSITION SKY/WX   TEMP    WIND        PRES    WAVE   SWELL
                          AIR SEA DIR/SP/G            HT/PER HT/PER
                          (F)     (DEG/KT/KT) (MB)    (FT/S) (FT/S)
29.2N   88.2W              74 74  140/ 12/ 16 1021.7F   2/ 3
28.8N   86.0W              74 75  140/ 14/ 14 1022.3F   3/ 4   2/10
PANAMA CITY BEAC           68 69  130/ 10/ 12 1023.5F
TOWER C                    67     170/  4/  4 1023.9F

$$
FLZ011-016>038-118-127-128-134-139-239-190700-
NORTH FLORIDA

CITY           SKY/WX    TMP DP  RH WIND       PRES   REMARKS
MARIANNA       FAIR      67  64  90 S5        30.21F
TALLAHASSEE    FOG       61  61 100 CALM      30.23F VSB 1
PERRY          FOG       64  63  96 CALM      30.26F VSB 1/2
LIVE OAK       PTCLDY    64  64 100 E3        30.29S
CROSS CITY     FAIR      62  61  98 CALM      30.30F
LAKE CITY      CLOUDY    63  61  94 E3        30.28F
GAINESVILLE    MOCLDY    62  62 100 CALM      30.30S
WILLISTON        N/A     64  64 100 CALM      30.27F FOG
PALATKA        FOG       64  64 100 E6        30.28F VSB 1/4
MAYPORT NAS    CLOUDY    61  61 100 N7        30.29F FOG
JACKSONVILLE   FOG       63  63 100 NE6       30.29F VSB 1/4
JAX CECIL      FOG       63  63 100 CALM      30.29S VSB 1/4
FERNANDINA BEA CLOUDY    61  61 100 N5        30.29S
ST AUGUSTINE   FOG       63  62  97 N7        30.30S VSB 1/4
PALM COAST     FAIR      65  65  99 CALM      30.28S

STATION/POSITION SKY/WX   TEMP    WIND        PRES    WAVE   SWELL
                          AIR SEA DIR/SP/G            HT/PER HT/PER
                          (F)     (DEG/KT/KT) (MB)    (FT/S) (FT/S)
SHELL POINT                66     270/  3/  4 1023.8
KEATON BEACH               66      70/  5/  6 1024.5F
CEDAR KEY                  70     110/ 10/ 12 1024.6F
FERNANDINA                 60 59   20/  2/  5 1026.9F
30.7N   81.3W                 60                N/A     2/11
MAYPORT                    60 59   20/  7/  9 1025.8F
31.4N   80.9W              59 58   40/  8/  8 1025.7F   3/ 5   2/ 5
ST AUGUSTINE               60 59  340/ 10/ 12 1025.6F

$$
FLZ040-043>046-052-053-057-058-063-144-190700-
INTERIOR CENTRAL FLORIDA

CITY           SKY/WX    TMP DP  RH WIND       PRES   REMARKS
OCALA          FAIR      62  61  96 CALM      30.27F
LEESBURG       FAIR      70  68  93 E5        30.27S
SANFORD        FAIR      64  63  96 E3        30.27S
ORLANDO EXEC   FAIR      66  66 100 E5        30.26F
ORLANDO INTL   FAIR      66  66 100 E6        30.27S
KISSIMMEE      FAIR      67  66  97 E6        30.27F
WINTER HAVEN   MOCLDY    69  68  96 E5        30.26F
BARTOW         CLOUDY    66 N/A N/A E3        30.26S
SEBRING        FAIR      67  64  89 CALM      30.25F
OKEECHOBEE     FAIR      64  63  94 E3        30.25F

$$
FLZ041-047-054-059-064-141-147-190700-
EAST CENTRAL FLORIDA

CITY           SKY/WX    TMP DP  RH WIND       PRES   REMARKS
DAYTONA BEACH  FAIR      66  66 100 CALM      30.27F
DELAND         FAIR      64  64 100 E5        30.27S
JFK SPACE CTR  FAIR      70  70 100 SE3       30.26S
CAPE CANAVERAL FAIR      66  64  92 SE6       30.25S
PATRICK AFB    FAIR      71  71 100 SE9         N/A
MELBOURNE      FAIR      74  67  78 E9        30.25F
VERO BEACH     FAIR      72  65  78 E7        30.26S
FT PIERCE      FAIR      72  66  81 E12       30.25F
STUART         FAIR      73  64  73 E12       30.26S

STATION/POSITION SKY/WX   TEMP    WIND        PRES    WAVE   SWELL
                          AIR SEA DIR/SP/G            HT/PER HT/PER
                          (F)     (DEG/KT/KT) (MB)    (FT/S) (FT/S)
28.5N   80.2W              75 73  120/ 12/ 14 1024.9F   2/10   2/10
TRIDENT PIER               69 69  100/  3/  5 1026.0F
28.4N   80.5W                 70                N/A     1/10
27.5N   80.2W                 74                N/A     2/ 4

$$
FLZ050-056-061-142-242-148-248-149-249-151-251-155-255-
160-260-190700-
WEST CENTRAL FLORIDA

CITY           SKY/WX    TMP DP  RH WIND       PRES   REMARKS
CRYSTAL RIVER  FAIR      64  61  88 CALM      30.26S
INVERNESS      FAIR      64  64 100 CALM      30.27S
BROOKSVILLE    FAIR      68  64  87 E5        30.26F
CLEARWATER AIR FAIR      68  64  88 E5        30.24S
ST PETE CLEARW FAIR      71  68  90 E12       30.23F
TAMPA INTL     FAIR      73  66  78 E9        30.24F
TAMPA EXEC     FAIR      70  66  88 E6        30.25F
PLANT CITY     CLOUDY    72  68  88 E6        30.27S
MACDILL AFB    FAIR      70  67  90 E10       30.24S
PETER O KNIGHT CLOUDY   N/A N/A N/A E7        30.24F
ST PETERSBURG  FAIR      71  67  87 E14       30.22F
SARASOTA       FAIR      70  63  78 E12       30.21F
VENICE         FAIR      70  63  78 E9        30.23S

STATION/POSITION SKY/WX   TEMP    WIND        PRES    WAVE   SWELL
                          AIR SEA DIR/SP/G            HT/PER HT/PER
                          (F)     (DEG/KT/KT) (MB)    (FT/S) (FT/S)
27.3N   84.2W                 73                N/A     2/ 6
CLEARWATER BEACH           71 71   80/  8/ 12 1023.6F
MIDDLE TAMPA BAY           70     110/ 13/ 16 1023.7F
VENICE                     69 72   90/  8/  9 1023.4F

$$
FLZ066-069-070-075>078-162-262-165-265-190700-
SOUTHWEST FLORIDA AND KEYS

CITY           SKY/WX    TMP DP  RH WIND       PRES   REMARKS
PUNTA GORDA    FAIR      67  62  84 E5        30.25S
FT MYERS       FAIR      69  64  84 E3        30.22F
SOUTHWEST INTL FAIR      67  64  90 E5        30.23S
NAPLES         FAIR      69  64  84 E3        30.21F
MARCO ISLAND   FAIR      68  64  87 NE5       30.22F
MARATHON       FAIR      75  64  68 E10       30.19S
KEY WEST NAS   FAIR      73  69  87 E9        30.19F
KEY WEST INTL  FAIR      74  67  78 E9        30.19F

STATION/POSITION SKY/WX   TEMP    WIND        PRES    WAVE   SWELL
                          AIR SEA DIR/SP/G            HT/PER HT/PER
                          (F)     (DEG/KT/KT) (MB)    (FT/S) (FT/S)
NAPLES                        76   90/  3/  5 1023.2F
DRY TORTUGAS               73     110/ 13/ 15 1022.0F
SAND KEY                   76                 1022.7F
MOLASSES REEF              75 76   60/ 11/ 14 1022.9F

$$
FLZ067-068-071>074-168-172>174-190700-
SOUTHEAST FLORIDA

CITY           SKY/WX    TMP DP  RH WIND       PRES   REMARKS
W PALM BEACH   FAIR      74  65  73 E13       30.24F
FT LAUDER-EXEC FAIR      73  64  73 E12       30.22F
FT LAUDERDALE  FAIR      74  66  76 E13       30.22F
POMPANO BEACH  FAIR      75  66  73 E15       30.22F
PEMBROKE PINES FAIR      75  63  66 E10       30.24F
OPA LOCKA      FAIR      73  64  73 E10       30.22F
MIAMI          FAIR      76  64  66 E9        30.22F
WEST KENDALL   FAIR      72  63  73 E10       30.21F
HOMESTEAD      FAIR      74  63  69 E10       30.20F

STATION/POSITION SKY/WX   TEMP    WIND        PRES    WAVE   SWELL
                          AIR SEA DIR/SP/G            HT/PER HT/PER
                          (F)     (DEG/KT/KT) (MB)    (FT/S) (FT/S)
PORT EVERGLADES            76      80/ 11/ 17 1023.4
VIRGINIA KEY               76 78   70/ 16/ 20 1022.4F
LAKE WORTH                 75 76   90/ 16/ 17 1024.7F
FOWEY ROCKS                75 75   70/ 20/ 21 1023.5F
SETTLEMENT POINT           74     100/ 16/ 18 1024.5F

$$





USA.gov is the U.S. government's official web portal to all federal, state and local government web resources and services.